GW4258 Weather Reports


Display with metric or nautical units.
time (UTC)temp
F
wind
direction
speed
MPH
gust
MPH
rain 1hr
in
rain 24hr
in
rain mn
in
humidity
%
barometer
mb
20260506202450 61 266 4.0 5.0 0.00 0.32 0.32 98 1007.6
20260506201946 61 277 5.0 5.0 0.00 0.32 0.32 98 1007.5
20260506201444 61 260 5.0 5.0 0.00 0.32 0.32 98 1007.6
20260506200940 61 281 5.0 5.0 0.00 0.32 0.32 98 1007.7
20260506200436 61 286 6.0 7.0 0.00 0.32 0.32 98 1007.6
20260506195933 61 278 3.0 5.0 0.00 0.32 0.32 98 1007.6
20260506195430 61 273 4.0 7.0 0.00 0.32 0.32 98 1007.5
20260506194926 61 270 7.0 8.0 0.00 0.32 0.32 98 1007.4
20260506194424 61 266 3.0 5.0 0.00 0.32 0.32 99 1007.4
20260506193921 61 275 5.0 7.0 0.00 0.32 0.32 99 1007.7
20260506193418 61 267 4.0 5.0 0.00 0.32 0.32 99 1007.5
20260506192914 61 278 6.0 7.0 0.00 0.32 0.32 99 1007.7
20260506192411 61 274 5.0 7.0 0.00 0.32 0.32 99 1007.6
20260506191908 61 269 4.0 7.0 0.00 0.32 0.32 99 1007.7
20260506191404 60 272 5.0 8.0 0.00 0.32 0.32 99 1007.8
20260506190902 60 273 3.0 8.0 0.00 0.32 0.32 99 1007.8
20260506190358 60 284 5.0 7.0 0.00 0.32 0.32 99 1007.7
20260506185855 60 277 4.0 7.0 0.00 0.32 0.32 99 1007.8
20260506185352 60 277 4.0 5.0 0.00 0.32 0.32 99 1007.8
20260506184849 60 270 5.0 7.0 0.05 0.32 0.32 99 1008.1
20260506184345 59 268 3.0 5.0 0.05 0.32 0.32 99 1008.0
20260506183843 59 273 5.0 5.0 0.00 0.31 0.31 99 1008.3
20260506183338 59 265 4.0 5.0 0.00 0.31 0.31 99 1008.2
20260506182836 59 277 4.0 5.0 0.00 0.31 0.31 99 1008.2
20260506182333 59 284 3.0 5.0 0.00 0.31 0.31 99 1008.3
20260506181830 59 281 4.0 5.0 0.00 0.31 0.31 99 1008.3
20260506181328 59 277 4.0 5.0 0.00 0.31 0.31 99 1008.4
20260506180825 59 260 3.0 4.0 0.07 0.31 0.31 99 1008.2
20260506180321 59 271 3.0 4.0 0.07 0.31 0.31 99 1008.3
20260506175817 59 277 4.0 5.0 0.00 0.30 0.30 99 1008.4
20260506175314 59 271 3.0 5.0 0.07 0.30 0.30 99 1008.6
20260506174812 59 259 6.0 7.0 0.07 0.30 0.30 99 1008.4
20260506174309 59 280 4.0 5.0 0.05 0.29 0.29 99 1008.3
20260506173806 59 285 6.0 7.0 0.05 0.29 0.29 99 1008.4
20260506173303 59 283 3.0 7.0 0.07 0.28 0.28 99 1008.4
20260506172800 59 270 7.0 8.0 0.07 0.28 0.28 99 1008.6
20260506172256 59 251 4.0 7.0 0.00 0.27 0.27 99 1008.5
20260506171754 59 273 5.0 7.0 0.05 0.27 0.27 99 1008.4
20260506171251 59 283 2.0 3.0 0.05 0.27 0.27 99 1008.5
20260506170749 59 262 2.0 3.0 0.07 0.26 0.26 99 1008.5
20260506170245 59 288 5.0 5.0 0.05 0.25 0.25 99 1008.7
20260506165743 59 304 2.0 4.0 0.12 0.25 0.25 99 1008.6
20260506165240 59 269 1.0 5.0 0.07 0.24 0.24 99 1008.9
20260506164737 59 259 4.0 5.0 0.12 0.23 0.23 99 1008.8
20260506164234 59 286 5.0 5.0 0.17 0.23 0.23 99 1008.7
20260506163731 59 281 4.0 5.0 0.05 0.21 0.21 99 1008.8
20260506163225 59 264 5.0 5.0 0.00 0.20 0.20 99 1008.9
20260506162722 60 276 3.0 4.0 0.00 0.20 0.20 99 1008.9
20260506162220 59 287 4.0 5.0 0.00 0.20 0.20 99 1008.8
20260506161717 60 284 3.0 4.0 0.00 0.20 0.20 99 1008.8
20260506161214 60 283 2.0 5.0 0.00 0.20 0.20 99 1008.7
20260506160712 59 281 4.0 7.0 0.07 0.20 0.20 99 1008.7
20260506160208 60 299 2.0 8.0 0.00 0.19 0.19 99 1008.5
20260506155707 60 284 4.0 5.0 0.05 0.19 0.19 99 1008.5
20260506155203 59 3 6.0 7.0 0.00 0.18 0.18 99 1008.6
20260506153305 60 9 2.0 7.0 0.12 0.17 0.17 99 1009.2
20260506152802 60 314 3.0 3.0 0.17 0.16 0.16 99 1009.3
20260506152259 60 287 4.0 4.0 0.24 0.15 0.15 99 1009.5
20260506151758 60 263 3.0 7.0 0.17 0.12 0.12 98 1009.6
20260506151254 60 280 4.0 8.0 0.05 0.10 0.10 98 1009.8
20260506150751 60 280 5.0 7.0 0.00 0.09 0.09 98 1009.6
20260506150248 60 273 2.0 4.0 0.00 0.09 0.09 98 1009.6
20260506145745 60 274 6.0 7.0 0.07 0.09 0.09 97 1009.4
20260506145241 60 292 2.0 4.0 0.07 0.09 0.09 97 1009.2
20260506144739 60 299 2.0 3.0 0.00 0.08 0.08 97 1009.1
20260506144236 60 296 3.0 4.0 0.05 0.08 0.08 97 1009.4
20260506143733 60 19 2.0 3.0 0.07 0.07 0.07 96 1009.1
20260506143231 60 202 0.0 5.0 0.07 0.07 0.07 96 1009.2
20260506142729 60 88 0.0 3.0 0.05 0.06 0.06 97 1009.0
20260506142227 60 329 1.0 1.0 0.05 0.06 0.06 96 1009.3
20260506141725 60 293 2.0 3.0 0.07 0.05 0.05 96 1009.6
20260506141223 60 277 4.0 5.0 0.07 0.04 0.04 96 1009.6
20260506140720 60 278 3.0 4.0 0.05 0.03 0.03 95 1009.5
20260506140217 60 300 2.0 3.0 0.05 0.03 0.03 95 1009.6
20260506135713 60 301 2.0 3.0 0.00 0.02 0.02 95 1009.4
20260506135210 60 286 3.0 4.0 0.00 0.02 0.02 95 1009.4
20260506134707 60 289 3.0 3.0 0.00 0.02 0.02 95 1009.2
20260506134203 60 319 3.0 3.0 0.00 0.02 0.02 95 1009.3
20260506133700 60 323 2.0 5.0 0.07 0.02 0.02 94 1009.4
20260506133157 60 279 1.0 4.0 0.07 0.02 0.02 94 1009.5
20260506132654 60 274 2.0 4.0 0.00 0.01 0.01 94 1009.7
20260506132151 60 286 3.0 4.0 0.00 0.01 0.01 93 1009.6
20260506131649 61 280 2.0 4.0 0.05 0.01 0.01 93 1010.0
20260506131144 61 281 3.0 4.0 0.05 0.01 0.01 92 1009.7
20260506130641 61 273 4.0 5.0 0.00 0.00 0.00 92 1009.6
20260506130139 61 283 4.0 4.0 0.00 0.00 0.00 92 1009.8
20260506125637 61 274 3.0 5.0 0.00 0.00 0.00 91 1009.8
20260506125134 61 271 5.0 8.0 0.00 0.00 0.00 90 1009.7
20260506124632 61 228 4.0 7.0 0.00 0.00 0.00 90 1009.8
20260506124130 62 281 4.0 5.0 0.00 0.00 0.00 88 1010.1
20260506123627 62 277 4.0 7.0 0.00 0.00 0.00 87 1009.8
20260506123126 62 281 5.0 7.0 0.00 0.00 0.00 85 1009.6
20260506122622 62 275 5.0 7.0 0.00 0.00 0.00 84 1009.7
20260506122120 62 272 6.0 7.0 0.00 0.00 0.00 84 1009.5
20260506121617 63 271 6.0 8.0 0.00 0.00 0.00 82 1009.6
20260506121114 63 269 6.0 7.0 0.00 0.00 0.00 81 1009.3
20260506120612 64 264 5.0 5.0 0.00 0.00 0.00 80 1009.2
20260506120108 64 266 5.0 8.0 0.00 0.00 0.00 79 1009.3
20260506115607 64 40 4.0 8.0 0.00 0.00 0.00 78 1009.4
20260506115105 64 287 5.0 8.0 0.00 0.00 0.00 78 1009.5
20260506114602 64 289 4.0 5.0 0.00 0.00 0.00 78 1009.3
20260506114100 64 281 4.0 8.0 0.00 0.00 0.00 78 1009.4
20260506113558 64 299 6.0 8.0 0.00 0.00 0.00 77 1009.2
20260506113055 64 266 4.0 5.0 0.00 0.00 0.00 78 1009.2
20260506112551 64 274 3.0 4.0 0.00 0.00 0.00 78 1009.4
20260506112049 64 290 5.0 7.0 0.00 0.00 0.00 78 1009.3
20260506111547 64 282 2.0 4.0 0.00 0.00 0.00 78 1009.3
20260506111044 64 283 4.0 5.0 0.00 0.00 0.00 78 1009.2
20260506110541 64 302 4.0 5.0 0.00 0.00 0.00 78 1009.2
20260506110038 64 283 3.0 7.0 0.00 0.00 0.00 78 1009.2
20260506105534 64 286 4.0 5.0 0.00 0.00 0.00 78 1009.1
20260506105032 64 291 4.0 4.0 0.00 0.00 0.00 78 1009.0
20260506104530 64 292 3.0 5.0 0.00 0.00 0.00 77 1009.0
20260506104028 64 301 4.0 4.0 0.00 0.00 0.00 77 1008.9
20260506103524 64 266 3.0 5.0 0.00 0.00 0.00 77 1008.8
20260506103021 64 339 4.0 5.0 0.00 0.00 0.00 77 1009.0
20260506102520 63 4 4.0 5.0 0.00 0.00 0.00 77 1008.9
20260506102017 63 275 4.0 4.0 0.00 0.00 0.00 78 1008.8
20260506101513 63 290 2.0 4.0 0.00 0.00 0.00 77 1008.7
20260506101010 63 289 2.0 3.0 0.00 0.00 0.00 76 1008.6
20260506100509 63 295 3.0 4.0 0.00 0.00 0.00 76 1008.8
20260506100007 63 316 3.0 4.0 0.00 0.00 0.00 76 1008.8
20260506095505 63 290 0.0 1.0 0.00 0.00 0.00 76 1008.8
20260506095000 63 288 2.0 3.0 0.00 0.00 0.00 76 1008.8
20260506094459 63 260 1.0 3.0 0.00 0.00 0.00 75 1008.9
20260506093956 64 283 2.0 4.0 0.00 0.00 0.00 74 1009.0
20260506093454 63 342 2.0 4.0 0.00 0.00 0.00 74 1009.0
20260506092952 63 294 3.0 4.0 0.00 0.00 0.00 74 1008.8
20260506092449 64 295 2.0 4.0 0.00 0.00 0.00 73 1008.8
20260506091945 64 289 3.0 4.0 0.00 0.00 0.00 73 1008.9
20260506091444 64 288 3.0 4.0 0.00 0.00 0.00 72 1008.9
20260506090941 64 29 1.0 4.0 0.00 0.00 0.00 72 1009.0
20260506090439 64 281 2.0 4.0 0.00 0.00 0.00 72 1008.9
20260506085935 64 300 3.0 4.0 0.00 0.00 0.00 72 1009.1
20260506085432 64 289 3.0 4.0 0.00 0.00 0.00 71 1008.9
20260506084928 64 334 2.0 3.0 0.00 0.00 0.00 71 1009.0
20260506084425 64 278 3.0 3.0 0.00 0.00 0.00 71 1008.9
20260506083921 64 329 2.0 4.0 0.00 0.00 0.00 70 1009.2
20260506083419 64 293 2.0 3.0 0.00 0.00 0.00 70 1009.1
20260506082916 64 348 4.0 5.0 0.00 0.00 0.00 70 1008.9
20260506082413 64 312 0.0 3.0 0.00 0.00 0.00 71 1009.1
20260506081908 63 320 0.0 1.0 0.00 0.00 0.00 71 1009.1
20260506081407 63 313 0.0 1.0 0.00 0.00 0.00 71 1009.1
20260506080904 64 295 0.0 1.0 0.00 0.00 0.00 71 1009.1
20260506080400 64 322 1.0 1.0 0.00 0.00 0.00 70 1009.1
20260506073344 64 245 0.0 1.0 0.00 0.00 0.00 68 1009.3
20260506072841 64 245 0.0 0.0 0.00 0.00 0.00 68 1009.1
20260506072339 64 245 0.0 1.0 0.00 0.00 0.00 67 1009.2
20260506071836 65 256 0.0 0.0 0.00 0.00 0.00 66 1009.4
20260506071335 66 272 2.0 3.0 0.00 0.00 0.00 63 1009.3
20260506070831 67 278 2.0 3.0 0.00 0.00 0.00 62 1009.4
20260506070328 67 271 2.0 3.0 0.00 0.00 0.00 62 1009.3
20260506062300 67 282 3.0 4.0 0.00 0.00 0.00 60 1009.5
20260506061755 67 276 3.0 4.0 0.00 0.00 0.00 60 1009.6
20260506061253 67 230 0.0 3.0 0.00 0.00 0.00 62 1009.8
20260506060751 67 260 1.0 3.0 0.00 0.00 0.00 59 1009.7
20260506060248 66 268 3.0 4.0 0.00 0.00 0.00 60 1009.7
20260506051220 67 282 3.0 5.0 0.00 0.00 0.00 58 1010.3
20260506050718 67 285 3.0 4.0 0.00 0.00 0.00 58 1010.3
20260506050215 67 289 3.0 4.0 0.00 0.00 0.00 57 1010.1
20260506044706 67 281 2.0 4.0 0.00 0.00 0.00 56 1010.3
20260506044202 67 281 3.0 4.0 0.00 0.00 0.00 57 1010.2
20260506043700 67 289 4.0 4.0 0.00 0.00 0.00 57 1010.2
20260506043158 67 291 5.0 5.0 0.00 0.00 0.00 57 1010.3
20260506042657 67 283 3.0 4.0 0.00 0.00 0.00 57 1010.3
20260506042154 67 287 3.0 4.0 0.00 0.00 0.00 58 1010.3
20260506041653 67 285 4.0 5.0 0.00 0.00 0.00 57 1010.2
20260506041149 67 281 3.0 5.0 0.00 0.00 0.00 57 1010.2
20260506040647 66 281 3.0 5.0 0.00 0.00 0.00 58 1010.3
20260506040143 66 280 3.0 4.0 0.00 0.00 0.00 59 1010.4
20260506035641 66 293 3.0 3.0 0.00 0.04 0.04 59 1010.3
20260506035137 65 268 1.0 3.0 0.00 0.04 0.04 61 1010.2
20260506034634 65 301 1.0 1.0 0.00 0.04 0.04 62 1010.3
20260506034131 66 289 1.0 3.0 0.00 0.04 0.04 60 1010.4
20260506033628 66 293 2.0 4.0 0.00 0.04 0.04 57 1010.3
20260506033125 67 298 4.0 4.0 0.00 0.04 0.04 57 1010.3
20260506032623 67 287 0.0 3.0 0.00 0.04 0.04 58 1010.3
20260506032119 66 293 2.0 4.0 0.00 0.04 0.04 58 1010.2
20260506031616 67 286 1.0 4.0 0.00 0.04 0.04 58 1010.1
20260506031113 67 304 2.0 3.0 0.00 0.04 0.04 57 1010.4
20260506030612 66 291 1.0 1.0 0.00 0.04 0.04 59 1010.3
20260506030109 67 276 0.0 1.0 0.00 0.04 0.04 58 1010.3
20260506025606 68 283 3.0 3.0 0.00 0.04 0.04 54 1010.4
20260506025101 68 331 2.0 4.0 0.00 0.04 0.04 54 1010.3
20260506024559 69 295 4.0 4.0 0.00 0.04 0.04 53 1010.3
20260506024055 69 296 3.0 4.0 0.00 0.04 0.04 53 1010.2
20260506023551 69 281 3.0 4.0 0.00 0.04 0.04 54 1010.4
20260506023049 69 286 1.0 3.0 0.00 0.04 0.04 54 1010.2
20260506022546 69 274 1.0 3.0 0.00 0.04 0.04 54 1010.4
20260506022044 70 315 4.0 4.0 0.00 0.04 0.04 52 1010.4
20260506021541 70 281 4.0 5.0 0.00 0.04 0.04 52 1010.4
20260506021038 70 346 3.0 5.0 0.00 0.04 0.04 51 1010.3
20260506020536 71 275 3.0 5.0 0.00 0.04 0.04 50 1010.4
20260506020033 70 289 5.0 7.0 0.00 0.04 0.04 51 1010.2
20260506015530 70 288 4.0 8.0 0.00 0.04 0.04 51 1010.2
20260506015027 71 285 4.0 7.0 0.00 0.04 0.04 51 1010.3
20260506014524 70 298 2.0 5.0 0.00 0.04 0.04 50 1010.3
20260506014020 70 325 3.0 4.0 0.00 0.04 0.04 51 1010.2
20260506013518 70 320 2.0 4.0 0.00 0.04 0.04 50 1010.2
20260506013010 70 333 2.0 3.0 0.00 0.04 0.04 51 1010.1
20260506012506 71 299 2.0 4.0 0.00 0.04 0.04 48 1009.8
20260506012003 70 304 0.0 4.0 0.00 0.04 0.04 49 1009.8
20260506011501 71 347 1.0 4.0 0.00 0.04 0.04 48 1009.8
20260506010956 72 37 0.0 1.0 0.00 0.04 0.04 47 1009.7
20260506010456 73 273 0.0 4.0 0.00 0.04 0.04 44 1009.5
20260506005951 73 290 3.0 5.0 0.00 0.04 0.04 43 1009.6
20260506005449 73 283 2.0 5.0 0.00 0.04 0.04 44 1009.5
20260506004950 73 308 4.0 7.0 0.00 0.04 0.04 45 1009.4
20260506004448 73 283 2.0 4.0 0.00 0.04 0.04 45 1009.2
20260506003943 73 278 4.0 4.0 0.00 0.04 0.04 46 1009.2
20260506003441 73 312 3.0 5.0 0.00 0.04 0.04 45 1009.4
20260506002937 73 304 4.0 4.0 0.00 0.04 0.04 45 1009.2
20260506002433 73 310 3.0 4.0 0.00 0.04 0.04 45 1009.2
20260506001928 73 335 3.0 5.0 0.00 0.04 0.04 45 1009.2
20260506001426 73 322 0.0 5.0 0.00 0.04 0.04 45 1009.1
20260506000923 74 287 4.0 5.0 0.00 0.04 0.04 45 1009.1
20260506000423 74 303 4.0 7.0 0.00 0.04 0.04 44 1009.0
20260505235918 74 278 5.0 7.0 0.00 0.04 0.04 44 1008.9
20260505235416 74 282 5.0 5.0 0.00 0.04 0.04 43 1008.9
20260505234912 75 291 4.0 7.0 0.00 0.04 0.04 43 1009.1
20260505234410 75 304 5.0 11.0 0.00 0.04 0.04 42 1008.9
20260505233906 75 312 4.0 5.0 0.00 0.04 0.04 43 1009.0
20260505233404 75 293 4.0 5.0 0.00 0.04 0.04 42 1008.8
20260505232901 76 300 2.0 5.0 0.00 0.04 0.04 41 1008.7
20260505232359 76 318 8.0 11.0 0.00 0.04 0.04 40 1008.6
20260505231855 76 297 4.0 7.0 0.00 0.04 0.04 40 1008.7
20260505231353 76 278 8.0 10.0 0.00 0.04 0.04 40 1008.6
20260505230851 77 337 4.0 8.0 0.00 0.04 0.04 40 1008.8
20260505230348 77 286 6.0 8.0 0.00 0.04 0.04 40 1008.6
20260505225845 77 271 7.0 8.0 0.00 0.04 0.04 39 1008.6
20260505225342 77 286 6.0 8.0 0.00 0.04 0.04 40 1008.5
20260505224837 77 268 5.0 8.0 0.00 0.04 0.04 40 1008.6
20260505224335 77 293 7.0 11.0 0.00 0.04 0.04 39 1008.6
20260505223832 77 299 6.0 10.0 0.00 0.04 0.04 39 1008.5
20260505223329 78 273 5.0 8.0 0.00 0.04 0.04 40 1008.5
20260505222825 78 268 9.0 11.0 0.00 0.04 0.04 39 1008.4
20260505222321 79 285 7.0 11.0 0.00 0.04 0.04 39 1008.3
20260505221818 78 285 5.0 10.0 0.00 0.04 0.04 39 1008.4
20260505221315 78 265 6.0 10.0 0.00 0.04 0.04 40 1008.6
20260505220812 79 278 6.0 11.0 0.00 0.04 0.04 39 1008.5
20260505220309 79 283 7.0 8.0 0.00 0.04 0.04 38 1008.2
20260505215807 80 311 5.0 11.0 0.00 0.04 0.04 38 1008.3
20260505215305 80 277 7.0 8.0 0.00 0.04 0.04 38 1008.3
20260505214802 80 263 10.0 12.0 0.00 0.04 0.04 38 1008.4
20260505214300 80 268 8.0 10.0 0.00 0.04 0.04 38 1008.4
20260505213756 80 301 6.0 11.0 0.00 0.04 0.04 38 1008.4
20260505213254 80 271 7.0 11.0 0.00 0.04 0.04 38 1008.5
20260505212749 80 201 6.0 8.0 0.00 0.04 0.04 38 1008.5
20260505212247 80 287 5.0 11.0 0.00 0.04 0.04 38 1008.3
20260505211744 80 287 8.0 11.0 0.00 0.04 0.04 37 1008.4
20260505211242 80 281 8.0 10.0 0.00 0.04 0.04 38 1008.3
20260505210738 80 273 6.0 11.0 0.00 0.04 0.04 38 1008.4
20260505210235 80 270 6.0 8.0 0.00 0.04 0.04 37 1008.2
20260505205732 80 270 9.0 12.0 0.00 0.04 0.04 38 1008.3
20260505205230 80 277 8.0 15.0 0.00 0.04 0.04 38 1008.4
20260505204726 80 279 8.0 11.0 0.00 0.04 0.04 38 1008.2
20260505204224 80 265 8.0 11.0 0.00 0.04 0.04 38 1008.1
20260505203721 81 269 8.0 10.0 0.00 0.04 0.04 37 1008.4
20260505203218 81 290 7.0 12.0 0.00 0.04 0.04 38 1008.5
20260505202714 80 263 3.0 11.0 0.00 0.04 0.04 38 1008.2